Weather History for KFSI - March, 2013

Change the Weather History Date:

Sunday, March 24, 2013

  Actual Average Record
Temperature  
Mean Temperature 39 °F -  
Max Temperature 47 °F 65 °F 90 °F (1959)
Min Temperature 30 °F 40 °F 23 °F (1965)
Degree Days  
Heating Degree Days 26    
Moisture  
Dew Point 21 °F    
Average Humidity 53    
Maximum Humidity 81    
Minimum Humidity 27    
Precipitation  
Precipitation 0.00 in - - ()
Sea Level Pressure  
Sea Level Pressure 30.10 in    
Wind  
Wind Speed 18 mph (NNW)    
Max Wind Speed 24 mph    
Max Gust Speed 37 mph    
Visibility 10 miles    
Events      
Averages and records for this station are not official NWS values.
T = Trace of Precipitation, MM = Missing Value Source: NWS Daily Summary

Daily Weather History Graph

Daily Weather History Graph

Search for Another Location

Airport or City:

Trip Planner

Search our weather history database for the weather conditions in past years. The results will help you decide how hot, cold, wet, or windy it might be!

Date:

Astronomy

Mar. 24, 2013 Rise Set
Actual Time 7:31 AM CDT 7:48 PM CDT
Civil Twilight 7:06 AM CDT 8:13 PM CDT
Nautical Twilight 6:36 AM CDT 8:43 PM CDT
Astronomical Twilight 6:06 AM CDT 9:13 PM CDT
Moon 5:23 PM CDT (3/24) 5:36 AM CDT (3/24)
Length of Visible Light 13h 07m
Length of Day
12h 17m
Waxing Gibbous, 92% of the Moon is Illuminated
Mar 24
Waxing Gibbous
Mar 27
Full
Apr 2
Last Quarter
Apr 10
New
Apr 18
First Quarter

Hourly Weather History & Observations

Time (CDT) Temp. Windchill Dew Point Humidity Pressure Visibility Wind Dir Wind Speed Gust Speed Precip Events Conditions
12:03 AM 37.4 °F 29.3 °F 32.0 °F 81% 29.90 in 10.0 mi North 12.7 mph 25.3 mph N/A   Mostly Cloudy
12:58 AM 37.8 °F 26.8 °F 31.3 °F 77% 29.94 in 10.0 mi NNW 23.0 mph 36.8 mph N/A   Overcast
1:53 AM 37.4 °F 26.9 °F 30.2 °F 75% 29.96 in 10.0 mi NNW 20.7 mph 26.5 mph N/A   Overcast
1:58 AM 36.7 °F 26.6 °F 29.7 °F 76% 29.97 in 10.0 mi NNW 18.4 mph 25.3 mph N/A   Overcast
2:58 AM 35.8 °F 24.5 °F 28.0 °F 73% 29.99 in 10.0 mi NNW 21.9 mph 31.1 mph N/A   Overcast
3:58 AM 35.8 °F 23.9 °F 27.7 °F 72% 30.01 in 10.0 mi NNW 24.2 mph 31.1 mph N/A   Overcast
4:58 AM 34.0 °F 22.1 °F 25.5 °F 71% 30.01 in 10.0 mi North 21.9 mph 33.4 mph N/A   Mostly Cloudy
5:58 AM 33.1 °F 20.3 °F 24.3 °F 70% 30.04 in 10.0 mi NNW 24.2 mph 29.9 mph N/A   Overcast
6:58 AM 31.6 °F 20.4 °F 23.2 °F 71% 30.08 in 10.0 mi NNW 17.3 mph 31.1 mph N/A   Partly Cloudy
7:58 AM 31.3 °F 19.5 °F 22.6 °F 70% 30.12 in 10.0 mi NNW 18.4 mph 26.5 mph N/A   Clear
8:58 AM 32.9 °F 21.3 °F 22.6 °F 66% 30.15 in 10.0 mi NNW 19.6 mph 27.6 mph N/A   Scattered Clouds
9:58 AM 34.5 °F 22.3 °F 22.6 °F 62% 30.17 in 10.0 mi NNW 24.2 mph 31.1 mph N/A   Mostly Cloudy
10:58 AM 36.7 °F 26.0 °F 22.3 °F 56% 30.18 in 10.0 mi NNW 20.7 mph 31.1 mph N/A   Partly Cloudy
11:58 AM 39.7 °F 30.0 °F 22.6 °F 50% 30.18 in 10.0 mi NNW 20.7 mph 27.6 mph N/A   Clear
12:58 PM 42.3 °F 34.1 °F 21.6 °F 44% 30.17 in 10.0 mi NNW 17.3 mph 27.6 mph N/A   Clear
1:58 PM 44.1 °F 36.8 °F 19.6 °F 38% 30.14 in 10.0 mi North 16.1 mph 28.8 mph N/A   Clear
2:58 PM 45.7 °F 38.0 °F 17.4 °F 32% 30.13 in 10.0 mi NNW 19.6 mph 26.5 mph N/A   Clear
3:58 PM 46.9 °F - 15.8 °F 29% 30.12 in 10.0 mi North 18.4 mph 25.3 mph N/A   Clear
4:23 PM 46.4 °F 39.5 °F 15.8 °F 29% 30.10 in 10.0 mi NNE 17.3 mph 26.5 mph N/A   Clear
4:27 PM 46.4 °F 39.0 °F 15.8 °F 29% 30.10 in 10.0 mi NNW 19.6 mph 26.5 mph N/A   Clear
4:28 PM 48.2 °F - 15.8 °F 27% 30.10 in 10.0 mi NNW 20.7 mph 26.5 mph N/A   Clear
4:31 PM 48.2 °F - 17.6 °F 30% 30.10 in 10.0 mi NNW 15.0 mph 26.5 mph N/A   Clear
4:58 PM 47.1 °F - 16.5 °F 29% 30.12 in 10.0 mi NNW 18.4 mph - N/A   Clear
5:58 PM 46.4 °F 40.4 °F 15.8 °F 29% 30.13 in 10.0 mi North 13.8 mph - N/A   Clear
6:58 PM 44.1 °F 36.8 °F 16.2 °F 33% 30.15 in 10.0 mi North 16.1 mph 24.2 mph N/A   Clear
7:58 PM 40.3 °F 33.4 °F 16.0 °F 37% 30.16 in 10.0 mi North 11.5 mph - N/A   Clear
8:58 PM 36.1 °F 28.2 °F 16.9 °F 46% 30.19 in 10.0 mi North 11.5 mph - N/A   Clear
9:58 PM 32.9 °F 24.1 °F 17.4 °F 53% 30.21 in 10.0 mi North 11.5 mph - N/A   Clear
10:58 PM 30.7 °F 21.4 °F 18.1 °F 60% 30.22 in 10.0 mi North 11.5 mph - N/A   Clear
11:58 PM 30.4 °F 21.5 °F 17.8 °F 60% 30.22 in 10.0 mi North 10.4 mph - N/A   Partly Cloudy